Location: Sternwarte Stuttgart
(48.7670°N, 9.1830°E)
Time: 20:56:37
(UTC+01:00)

Daily predictions for brighter satellites

Satellite Brightness Start Highest point End
(mag) Time Altitude Azimuth Time Altitude Azimuth Time Altitude Azimuth
Meteor 1-25 Rocket 4.4 18:21:54 10° SSE 18:27:12 48° E 18:32:33 10° NNE
Okean 1 3.8 18:25:41 10° N 18:29:28 38° ENE 18:33:12 10° SE
DNEPR-1 R/B 4.1 18:29:03 10° SW 18:33:12 61° NW 18:37:44 10° NE
ATLAS CENTAUR R/B 2.5 18:29:46 10° NNW 18:33:18 27° NE 18:37:01 10° E
USA 186 4.0 18:34:32 10° ENE 18:34:43 10° ENE 18:34:53 10° ENE
SKYMED 2 3.5 18:32:34 10° NNE 18:36:57 76° ESE 18:41:17 10° S
Cosmos 1943 3.9 18:32:42 10° NNW 18:37:50 34° NE 18:42:57 10° ESE
Cosmos 1420 Rocket 4.4 18:33:15 10° NNW 18:38:32 71° WSW 18:43:48 10° SSE
FENGYUN 3A 3.9 18:33:21 10° SSE 18:38:45 81° WSW 18:44:13 10° NNW
NOSS 3-2 (C) 3.8 18:33:47 10° SW 18:39:49 72° NW 18:46:40 10° NE
Cosmos 1975 Rocket 3.5 18:39:00 10° N 18:43:14 41° ENE 18:47:28 10° SE
EO 1 Del DPAF 3.6 18:41:54 10° NNE 18:45:35 43° E 18:49:14 10° S
Landsat 4 3.8 18:42:17 10° NNE 18:45:59 53° E 18:49:40 10° S
SPOT 3 Rocket 3.6 18:41:16 10° SSE 18:46:28 83° ENE 18:51:44 10° NNW
SeaSat 1 3.3 18:43:39 10° ESE 18:48:00 32° NE 18:52:21 10° NNW
CZ-4 R/B 3.8 18:47:27 10° SSW 18:50:55 28° W 18:54:20 10° NW
Gbstr 26 Del rocket 4.1 18:48:28 10° S 18:51:20 21° SE 18:53:38 13° E
CENTAUR R/B 2.6 18:45:23 10° SSW 18:51:27 71° SE 18:58:28 10° NE
Cosmos 1633 2.4 18:48:15 10° S 18:51:49 81° E 18:55:25 10° NNE
Cosmos 2227 Rocket 3.2 18:49:40 10° SW 18:55:08 49° NW 19:00:39 10° NNE
CZ-4C R/B 3.1 18:50:18 10° NW 18:56:57 51° NE 19:04:22 10° ESE
FengYun 1-2 T 4.2 18:52:36 10° SSE 18:58:04 72° ENE 19:03:33 10° NNW
Cosmos 1437 Rocket 3.1 18:55:04 10° S 18:58:59 47° E 19:02:57 10° NNE
SL-16 R/B 3.5 18:53:59 10° NW 18:59:21 45° WSW 19:04:41 10° S
USA 267 3.8 18:54:31 11° E 19:00:23 47° N 19:06:34 10° WNW
Cosmos 1378 Rocket 3.9 18:57:27 10° NNW 19:01:53 70° W 19:06:17 10° S
DMSP B5D1-3 4.5 18:58:07 10° NNE 19:03:18 77° ESE 19:08:27 10° S
MTI 4.1 19:02:11 10° N 19:05:23 68° WNW 19:08:33 10° SSW
Cosmos 1536 4.2 19:02:52 10° SE 19:05:44 19° E 19:08:36 10° NE
Cosmos 2297 Rocket 3.3 19:02:59 10° SW 19:08:25 45° NW 19:13:53 10° NNE
Alouette 2 Rocket 4.3 19:05:38 10° SE 19:08:30 23° E 19:11:41 10° NE
Aureole 3 4.4 19:05:04 10° SSW 19:10:12 57° W 19:14:14 10° N
Resurs 01 Rocket 2.6 19:08:29 14° ESE 19:11:25 28° ENE 19:15:11 10° N
Envisat 3.2 19:07:44 10° SE 19:12:35 47° ENE 19:17:27 10° N
Tsikada Rocket 4.1 19:07:20 10° S 19:13:35 57° E 19:19:50 10° NNE
Cosmos 1536 Rocket 4.4 19:09:50 10° N 19:13:41 28° ENE 19:16:11 17° ESE
Cosmos 1184 Rocket 3.1 19:13:48 10° N 19:16:57 41° ENE 19:19:23 15° SE
Cosmos 1464 Rocket 4.5 19:11:37 10° NNW 19:17:40 63° W 19:23:42 10° S
Cosmos 1603 3.7 19:12:53 10° NNW 19:18:35 85° WSW 19:24:11 10° SSE
Cosmos 494 Rocket 4.4 19:14:02 10° S 19:18:50 39° ESE 19:23:39 10° NE
Cosmos 1782 Rocket 3.5 19:14:34 10° S 19:18:59 76° E 19:23:24 10° NNE
ERS-2 2.3 19:18:24 10° S 19:22:05 75° WSW 19:25:48 10° NNW
Cosmos 1110 Rocket 4.0 19:19:09 10° NNW 19:24:29 90° ENE 19:29:48 10° SSE
COSMOS 2455 3.3 19:19:24 10° S 19:24:52 37° ESE 19:30:19 10° NE
COSMO-SKYMED 1 4.2 19:20:56 10° N 19:24:56 37° WNW 19:28:56 10° SW
ATLAS 3B R/B 4.1 19:19:00 10° W 19:25:15 32° NNW 19:31:18 10° NE
SL-8 R/B 3.6 19:22:16 10° WSW 19:27:04 81° SSE 19:29:44 26° E
Thor Agena Rocket 3.7 19:25:52 10° NNE 19:30:48 48° E 19:35:40 10° S
Cosmos 2263 Rocket 2.8 19:27:51 10° SSE 19:32:47 33° ESE 19:36:51 14° NE
Cosmos 1269 Rocket 4.1 19:27:55 10° SSW 19:33:13 84° WNW 19:38:33 10° NNE
Meteor 1-13 Rocket 4.1 19:30:01 10° NNW 19:35:36 87° E 19:41:08 10° S
H-2A R/B 4.4 19:32:34 10° SSW 19:36:13 38° W 19:39:53 10° NNW
USA 32 4.3 19:32:07 10° SSW 19:37:19 70° W 19:42:34 10° N
Cosmos 1939 Rocket 3.3 19:35:57 31° ESE 19:37:20 41° ENE 19:41:12 10° N
Sich 1 Rocket 4.3 19:33:12 10° SSW 19:37:36 56° WNW 19:41:59 10° N
Iridium 4 Rocket 4.3 19:33:57 10° NNW 19:38:34 47° W 19:42:48 10° SSW
HJ-1C 4.1 19:39:13 10° S 19:42:35 56° W 19:45:58 10° NNW
Cosmos 2279 Rocket 4.3 19:36:59 10° N 19:42:54 42° ENE 19:46:18 23° SE
Cosmos 2346 Rocket 4.3 19:39:22 10° S 19:45:32 74° E 19:51:40 10° NNE
ARGOS 4.4 19:46:02 22° NE 19:46:02 22° NE 19:49:59 10° N
Okean 2 Rocket 3.0 19:43:05 10° S 19:47:28 89° WSW 19:51:57 10° N
CZ-3B R/B 4.3 19:38:29 10° SW 19:48:43 42° SSE 19:49:42 36° ESE
SJ-6B 3.5 19:49:08 10° S 19:52:53 54° W 19:56:44 10° NNW
Cosmos 2151 Rocket 3.5 19:52:52 10° S 19:57:17 64° E 20:01:42 10° NNE
Meteor 1-4 Rocket 2.8 19:56:32 10° SSW 20:00:03 66° WNW 20:03:40 10° N
Meteor 2-4 Rocket 4.0 19:56:01 10° NNW 20:01:49 71° W 20:07:24 10° S
CZ-2D R/B 4.1 19:58:15 10° S 20:02:03 51° W 20:05:52 10° NNW
Spot 2 Rocket 3.4 19:59:44 32° SE 20:02:04 67° ENE 20:07:08 10° N
H-2A R/B 3.5 20:04:48 22° NE 20:04:48 22° NE 20:08:04 10° N
Cosmos 2227 4.4 19:58:21 10° SW 20:04:03 72° WNW 20:09:46 10° NNE
USA 186 2.0 20:04:41 67° SW 20:04:56 71° WSW 20:08:17 10° NNW
Cosmos 1634 Rocket 3.9 19:59:20 10° N 20:05:33 87° W 20:11:44 10° S
USA 215 3.5 20:05:23 37° E 20:07:11 45° SE 20:13:22 10° SSW
Meteor 1-5 Rocket 4.2 20:01:47 10° S 20:07:40 72° E 20:13:39 10° NNE
ARGOS Delta rocket 4.0 20:05:03 10° N 20:09:54 73° WNW 20:14:27 10° SSW
Cosmos 2082 Rocket 4.3 20:10:14 10° N 20:12:11 12° NNE 20:12:43 12° NNE
ATLAS CENTAUR R/B 2.1 20:08:26 10° NW 20:12:29 53° WSW 20:13:55 36° S
NOAA 11 4.1 20:18:15 56° ESE 20:19:06 64° ENE 20:24:29 10° N
YAOGAN 6 3.0 20:19:53 61° NW 20:19:53 61° NW 20:23:02 10° NNW
Cosmos 1066 Rocket 4.4 20:14:00 10° N 20:19:38 49° ENE 20:19:38 49° ENE
Cosmos 2251 Rocket 3.3 20:15:43 10° SSW 20:20:57 79° ESE 20:26:13 10° NNE
Cosmos 1943 4.0 20:16:39 10° NW 20:22:06 50° WSW 20:26:28 16° S
SeaSat 1 3.2 20:22:29 23° S 20:25:21 50° WSW 20:30:10 10° NW
Resurs 1-3 4.1 20:24:44 32° SSW 20:26:34 58° W 20:30:56 10° NNW
Meteor 1-11 Rocket 4.2 20:22:29 10° SSW 20:28:02 60° WNW 20:33:45 10° N
COSMOS 2406 3.9 20:27:45 10° NNW 20:32:26 38° NE 20:32:26 38° NE
Gbstr 26 Del rocket 3.9 20:33:52 10° WSW 20:36:13 38° WSW 20:36:13 38° WSW
Cosmos 1536 4.0 20:38:00 10° SSW 20:41:52 42° WNW 20:45:46 10° N
CENTAUR R/B 3.8 20:36:42 10° W 20:42:42 39° NNW 20:48:56 12° NE
USA 267 3.1 20:41:51 62° E 20:43:01 79° NNE 20:49:35 10° NW
CZ-4C R/B 3.4 20:38:51 10° NW 20:45:46 55° WSW 20:49:38 30° S
Meteor 2-20 4.3 20:45:39 64° S 20:46:39 81° E 20:52:51 10° NNE
Resurs 01 Rocket 3.0 20:46:03 26° SW 20:47:47 37° W 20:51:54 10° NNW
BREEZE-M DEB (TANK) 4.2 20:46:00 10° SW 20:50:07 76° SE 21:06:57 10° ENE
Cosmos 1025 Rocket 4.5 20:54:11 10° NNW 20:56:45 34° NNW 20:56:45 34° NNW
COSMOS 2455 3.6 21:04:50 10° WSW 21:10:41 50° NW 21:13:34 28° NNE
Cosmos 2263 Rocket 3.1 21:11:11 10° SW 21:16:33 46° NW 21:18:48 31° N
ATLAS 3B R/B 4.3 21:12:49 10° NW 21:18:07 23° N 21:20:01 20° NNE
ARGOS 4.2 21:27:32 41° NNW 21:27:32 41° NNW 21:31:07 10° NNW
H-2A R/B 3.7 21:45:25 31° NNW 21:45:25 31° NNW 21:48:14 10° NNW
USA 215 4.1 21:52:45 43° W 21:52:45 43° W 21:56:58 10° WSW
Cosmos 2082 Rocket 4.3 21:52:43 10° NNW 21:54:34 20° N 21:54:34 20° N
CENTAUR R/B 4.5 22:29:47 10° WNW 22:35:29 26° N 22:36:08 25° N
